Flag for Austria Weather past 2 weeks in Marchtrenk, Upper Austria, Austria

Now
61 °F

Fog.


Feels Like: 61 °F
Forecast: 56 / 77 °F
Wind: 1 mph from North

Location: Linz / Hoersching-Flughafen

Current Time: Jul 23, 2014 at 6:11:29 AM

Latest Report: Jul 23, 2014 at 5:20 AM


Visibility: 0 mi

Pressure: 29.98 "Hg

Humidity: 100%

Dew point: 61 °F

Location of MarchtrenkLocation

Historic Weather in Marchtrenk — Graph

°F

Marchtrenk temperature yesterday

Maximum temperature yesterday: 68 °F (at 4:20 PM)
Minimum temperature yesterday: 61 °F (at 12:50 AM)
Average temperature yesterday: 64 °F

Past Weeks' High & Low Weather Summary

 TemperatureHumidityPressure
High95 °F (Jul 20, 4:50 PM)100% (Jul 14, 4:20 AM)30.18 "Hg (Jul 14, 4:20 AM)
Low52 °F (Jul 10, 1:50 AM)23% (Jul 20, 4:50 PM)29.65 "Hg (Jul 8, 2:50 PM)
Average67 °F74%29.94 "Hg
* Reported Jul 8 4:20 AM — Jul 23 4:50 AM, Marchtrenk, Weather by CustomWeather, © 2014

Note: Actual official high and low records may vary slightly from our data, if they occured in-between our weather recording intervals... More about our weather records

Advertising

Marchtrenk weather history for previous 24 hours

 ConditionsComfort  
Time TempWeatherWind HumidityBarometerVisibility
4:50 AM
Jul 23
61 °FFog.2 mph100%29.98 "Hg0 mi
4:20 AM59 °FFog.3 mph100%29.95 "Hg1 mi
3:50 AM61 °FCool.5 mph100%29.95 "Hg1 mi
3:20 AM61 °FFog.5 mph100%29.95 "Hg2 mi
2:50 AM61 °FFog.5 mph100%29.95 "Hg0 mi
2:20 AM63 °FSleet. Overcast.5 mph94%29.95 "Hg2 mi
1:50 AM64 °FFog.6 mph94%29.95 "Hg3 mi
6:50 PM
Jul 22
68 °FBroken clouds.6 mph88%29.92 "HgN/A
6:20 PM68 °FBroken clouds.5 mph88%29.89 "HgN/A
5:50 PM68 °FBroken clouds.6 mph88%29.89 "HgN/A
5:20 PM68 °FPartly sunny.6 mph88%29.89 "HgN/A
4:50 PM68 °FDrizzle. Partly sunny.6 mph88%29.89 "HgN/A
4:20 PM68 °FLight rain. Partly sunny.7 mph88%29.89 "HgN/A
3:50 PM66 °FLight rain. Partly sunny.6 mph88%29.89 "HgN/A
3:20 PM66 °FLight rain. Partly sunny.7 mph88%29.89 "HgN/A
2:50 PM66 °FLight rain. Partly sunny.6 mph88%29.89 "HgN/A
2:20 PM66 °FLight rain. Broken clouds.6 mph88%29.89 "HgN/A
1:50 PM64 °FRain. Broken clouds.7 mph94%29.89 "HgN/A
1:20 PM64 °FRain. Partly sunny.6 mph94%29.92 "Hg5 mi
12:50 PM64 °FLight rain. Broken clouds.5 mph88%29.89 "HgN/A
12:20 PM64 °FRain. Broken clouds.7 mph94%29.89 "HgN/A
11:50 AM64 °FLight rain. Partly sunny.5 mph88%29.89 "HgN/A
11:20 AM64 °FLight rain. Partly sunny.7 mph88%29.89 "HgN/A
10:50 AM64 °FPartly sunny.7 mph88%29.86 "HgN/A
10:20 AM64 °FPartly sunny.8 mph88%29.86 "HgN/A
9:50 AM63 °FPartly sunny.8 mph94%29.86 "HgN/A
9:20 AM63 °FBroken clouds.7 mph94%29.86 "HgN/A
8:50 AM63 °FLight rain. Broken clouds.8 mph94%29.86 "HgN/A
8:20 AM63 °FLight rain. Partly sunny.6 mph94%29.86 "Hg4 mi
7:50 AM63 °FRain. Broken clouds.6 mph94%29.86 "Hg4 mi
7:20 AM63 °FRain. Partly sunny.6 mph94%29.86 "Hg4 mi
6:50 AM63 °FRain. Partly sunny.5 mph94%29.86 "Hg2 mi
6:20 AM63 °FRain. Passing clouds.3 mph94%29.86 "Hg5 mi
Weather by CustomWeather, © 2014

See weather overviewHow to use our weather pages